User: anonymous   Login
Location: SAPM � Hemmingford
(45.0500°N, 73.5833°W)
Time: 20:34:03
(UTC-04:00)
Language:

Cosmos 1603 - Orbit

View from above orbital plane
View from above orbital plane
View from above satellite
View from above satellite

Ground track
Ground track

The orbit data is extracted from the following two-line orbital elements,

1 15333U 84106A   15117.53126185  .00000259  00000-0  16111-3 0  9999
2 15333 071.0253 289.0564 0020804 312.7616 102.4544 14.13991711577779
Epoch (UTC): 27 April 2015 12:45:01
Eccentricity: 0.0020804
inclination: 71.0253°
perigee height: 831 km
apogee height: 861 km
right ascension of ascending node: 289.0564°
argument of perigee: 312.7616°
revolutions per day: 14.13991711
mean anomaly at epoch: 102.4544°
orbit number at epoch: 57777

The dashed part of the orbit path shows where the satellite is in the earth's shadow,  

DLR